STARLINK-1822 (46719 NORAD) Tracking and Keplerian Element Data

This shows tracking and keplerian element data for the satellite.

Feedback or suggestion? Click here.




ElementValue
Catalog46719
NameSTARLINK-1822
Epoch Orbit609
Epoch Day328.16667824
Epoch Year2020
RAAN293.7584
Inclination53.0551
Eccentricity7.95E-05
Argument of Perigee69.1211
Mean Anonmoly90.5914
Mean Motion15.62844745
Decay Rate-0.00076566
L11 46719U 20073BB 20328.16667824 -.00076566 00000-0 -83529-3 0 9996
L22 46719 53.0551 293.7584 0000795 69.1211 90.5914 15.62844745 6096

Live tracking and technical data element details for STARLINK-1822 (NORAD 46719). STARLINK-1822 can be tracked NOW for your location showing map with azimuth and elevation plus other details from your city location.

Track the satellite on the map from your city or location and see movement details for azimuth, elevation, latitude, longitude, range, height, and movement on the map or in text.







IsCatalogInMostPopularTable: catalog: 46719, numindb: 12
Update: records affected: 1



GetName: 46719 STARLINK-1822

Hit Count: updated at: Tue, 24 Nov 2020 11:59:32 GMT